Location: Aultman
(40.9284°N, 81.4173°W)
Time: 08:30:52
(UTC+00:00)

NOSS 3-1 (C) - Pass Details

Date: 24 January 2021
Orbit: 723 x 1485 km, 63.3° (Epoch: 02 March)

Event Time Altitude Azimuth Distance (km) Brightness Sun altitude
Rises 23:35:02 0° 327° (NNW) 3,934 6.9 -11.8°
Reaches altitude 10° 23:37:38 10° 332° (NNW) 3,078 6.3 -12.2°
Maximum altitude 23:45:03 54° 50° (NE) 1,555 4.2 -13.6°
Drops below altitude 10° 23:53:35 10° 126° (SE) 3,540 6.0 -15.2°
Sets 23:56:45 0° 131° (SE) 4,562 6.6 -15.7°
